TimeCST,TemperatureF,Dew PointF,Humidity,Sea Level PressureIn,VisibilityMPH,Wind Direction,Wind SpeedMPH,Gust SpeedMPH,PrecipitationIn,Events,Conditions,WindDirDegrees,DateUTC
12:10 AM,41.9,29.7,62,29.96,10.0,West,11.5,-,N/A,,Clear,260,2012-12-04 06:10:00
12:30 AM,40.5,29.1,64,29.97,10.0,West,9.2,-,N/A,,Clear,260,2012-12-04 06:30:00
12:50 AM,40.3,28.2,62,29.96,10.0,West,10.4,-,N/A,,Clear,270,2012-12-04 06:50:00
1:10 AM,42.1,27.5,56,29.97,10.0,West,10.4,-,N/A,,Clear,280,2012-12-04 07:10:00
1:30 AM,43.7,27.3,53,29.98,10.0,West,12.7,-,N/A,,Clear,280,2012-12-04 07:30:00
1:50 AM,44.1,27.1,51,29.98,10.0,WNW,11.5,-,N/A,,Clear,300,2012-12-04 07:50:00
2:10 AM,44.8,27.0,50,29.99,10.0,WNW,11.5,-,N/A,,Clear,300,2012-12-04 08:10:00
2:30 AM,43.5,27.0,52,29.99,10.0,WNW,9.2,-,N/A,,Clear,290,2012-12-04 08:30:00
2:50 AM,42.3,26.6,54,30.00,10.0,WSW,8.1,-,N/A,,Clear,240,2012-12-04 08:50:00
3:10 AM,40.5,26.6,58,30.00,10.0,SW,9.2,-,N/A,,Clear,230,2012-12-04 09:10:00
3:30 AM,37.9,26.6,64,30.00,10.0,SW,6.9,-,N/A,,Clear,230,2012-12-04 09:30:00
3:50 AM,36.3,26.6,68,30.00,10.0,SW,5.8,-,N/A,,Clear,230,2012-12-04 09:50:00
4:10 AM,38.5,26.1,61,30.01,10.0,WSW,8.1,-,N/A,,Clear,240,2012-12-04 10:10:00
4:30 AM,36.1,26.4,68,30.01,10.0,SW,8.1,-,N/A,,Clear,230,2012-12-04 10:30:00
4:50 AM,36.5,26.2,66,30.02,10.0,SSW,9.2,-,N/A,,Clear,210,2012-12-04 10:50:00
5:10 AM,36.1,26.1,67,30.03,10.0,SSW,8.1,-,N/A,,Clear,210,2012-12-04 11:10:00
5:30 AM,35.2,25.7,68,30.04,10.0,WSW,5.8,-,N/A,,Clear,240,2012-12-04 11:30:00
5:50 AM,37.4,25.2,61,30.04,10.0,WSW,8.1,-,N/A,,Clear,240,2012-12-04 11:50:00
6:10 AM,37.6,24.8,60,30.05,10.0,WSW,9.2,-,N/A,,Clear,250,2012-12-04 12:10:00
6:30 AM,37.8,24.6,59,30.07,10.0,WSW,9.2,-,N/A,,Clear,250,2012-12-04 12:30:00
6:50 AM,37.2,24.4,60,30.07,10.0,WSW,9.2,-,N/A,,Clear,250,2012-12-04 12:50:00
7:09 AM,37.4,24.1,59,30.08,10.0,WSW,9.2,-,N/A,,Clear,250,2012-12-04 13:09:00
7:50 AM,36.3,24.3,62,30.09,10.0,West,9.2,-,N/A,,Clear,260,2012-12-04 13:50:00
8:10 AM,36.9,24.6,61,30.10,10.0,West,9.2,-,N/A,,Clear,270,2012-12-04 14:10:00
8:30 AM,37.4,24.8,60,30.11,10.0,West,9.2,-,N/A,,Clear,270,2012-12-04 14:30:00
8:50 AM,38.7,25.7,60,30.12,10.0,West,10.4,16.1,N/A,,Clear,280,2012-12-04 14:50:00
9:10 AM,39.6,25.9,58,30.13,10.0,West,11.5,-,N/A,,Clear,280,2012-12-04 15:10:00
9:29 AM,41.0,27.1,58,30.13,10.0,WNW,11.5,-,N/A,,Clear,300,2012-12-04 15:29:00
9:50 AM,42.4,25.9,52,30.14,10.0,WNW,17.3,23.0,N/A,,Clear,290,2012-12-04 15:50:00
10:10 AM,43.2,26.1,51,30.14,10.0,WNW,15.0,19.6,N/A,,Clear,290,2012-12-04 16:10:00
10:30 AM,43.0,24.6,48,30.15,10.0,WNW,19.6,25.3,N/A,,Clear,300,2012-12-04 16:30:00
10:50 AM,43.7,25.3,48,30.15,10.0,WNW,15.0,-,N/A,,Clear,300,2012-12-04 16:50:00
11:10 AM,43.7,25.3,48,30.14,10.0,WNW,15.0,18.4,N/A,,Clear,290,2012-12-04 17:10:00
11:30 AM,44.1,24.4,46,30.14,10.0,WNW,13.8,20.7,N/A,,Clear,300,2012-12-04 17:30:00
11:50 AM,44.8,24.6,45,30.14,10.0,WNW,15.0,-,N/A,,Clear,290,2012-12-04 17:50:00
12:10 PM,44.2,23.5,44,30.14,10.0,WNW,15.0,-,N/A,,Clear,290,2012-12-04 18:10:00
12:30 PM,44.6,23.2,43,30.14,10.0,NW,17.3,20.7,N/A,,Clear,310,2012-12-04 18:30:00
12:50 PM,44.6,23.4,43,30.14,10.0,WNW,13.8,-,N/A,,Clear,300,2012-12-04 18:50:00
1:10 PM,44.6,22.8,42,30.15,10.0,West,18.4,-,N/A,,Clear,280,2012-12-04 19:10:00
1:30 PM,44.2,22.3,42,30.16,10.0,NW,15.0,21.9,N/A,,Clear,320,2012-12-04 19:30:00
1:50 PM,44.1,21.7,41,30.16,10.0,NW,15.0,21.9,N/A,,Clear,310,2012-12-04 19:50:00
2:10 PM,42.8,20.7,41,30.16,10.0,NW,13.8,-,N/A,,Clear,320,2012-12-04 20:10:00
2:30 PM,42.8,20.5,41,30.17,10.0,NW,16.1,23.0,N/A,,Clear,320,2012-12-04 20:30:00
2:50 PM,42.6,20.3,41,30.17,10.0,NW,11.5,-,N/A,,Clear,310,2012-12-04 20:50:00
3:10 PM,41.5,19.9,42,30.18,10.0,WNW,15.0,-,N/A,,Clear,300,2012-12-04 21:10:00
3:30 PM,40.5,19.9,44,30.19,10.0,NW,10.4,-,N/A,,Clear,310,2012-12-04 21:30:00
3:50 PM,39.7,19.8,45,30.20,10.0,NW,11.5,-,N/A,,Clear,310,2012-12-04 21:50:00
4:09 PM,38.5,19.4,46,30.21,10.0,NW,11.5,-,N/A,,Clear,320,2012-12-04 22:09:00
4:50 PM,36.3,19.0,50,30.22,10.0,NNW,9.2,-,N/A,,Clear,330,2012-12-04 22:50:00
5:09 PM,32.0,20.5,63,30.23,10.0,NW,8.1,-,N/A,,Clear,320,2012-12-04 23:09:00
5:30 PM,30.9,20.3,65,30.25,10.0,NW,6.9,-,N/A,,Clear,320,2012-12-04 23:30:00
5:50 PM,29.3,20.3,69,30.26,10.0,NW,8.1,-,N/A,,Clear,310,2012-12-04 23:50:00
6:10 PM,29.7,20.3,68,30.26,10.0,NNW,9.2,-,N/A,,Clear,330,2012-12-05 00:10:00
6:30 PM,29.3,20.1,69,30.26,10.0,NNW,9.2,-,N/A,,Clear,340,2012-12-05 00:30:00
6:50 PM,28.4,19.9,71,30.26,10.0,NNW,9.2,-,N/A,,Clear,340,2012-12-05 00:50:00
7:10 PM,27.9,19.9,72,30.26,10.0,NNW,8.1,-,N/A,,Clear,340,2012-12-05 01:10:00
7:30 PM,27.7,19.6,72,30.28,10.0,NNW,5.8,-,N/A,,Clear,340,2012-12-05 01:30:00
7:50 PM,26.6,18.5,71,30.28,10.0,North,8.1,-,N/A,,Clear,360,2012-12-05 01:50:00
8:10 PM,26.4,17.1,68,30.28,10.0,North,10.4,-,N/A,,Clear,350,2012-12-05 02:10:00
8:30 PM,25.7,16.5,68,30.28,10.0,North,6.9,-,N/A,,Clear,360,2012-12-05 02:30:00
8:50 PM,25.3,16.3,69,30.28,10.0,North,9.2,-,N/A,,Clear,360,2012-12-05 02:50:00
9:10 PM,24.6,16.2,70,30.31,10.0,North,4.6,-,N/A,,Clear,360,2012-12-05 03:10:00
9:30 PM,23.9,15.8,71,30.31,10.0,North,5.8,-,N/A,,Clear,360,2012-12-05 03:30:00
9:50 PM,23.5,15.6,72,30.32,10.0,North,6.9,-,N/A,,Clear,360,2012-12-05 03:50:00
10:10 PM,22.8,15.4,73,30.33,10.0,North,5.8,-,N/A,,Clear,360,2012-12-05 04:10:00
10:30 PM,22.6,15.1,73,30.34,10.0,North,4.6,-,N/A,,Clear,350,2012-12-05 04:30:00
10:50 PM,21.9,14.9,74,30.34,10.0,North,8.1,-,N/A,,Clear,350,2012-12-05 04:50:00
11:10 PM,21.7,14.7,74,30.35,10.0,North,4.6,-,N/A,,Clear,350,2012-12-05 05:10:00
11:30 PM,21.2,14.4,75,30.37,10.0,North,5.8,-,N/A,,Clear,350,2012-12-05 05:30:00
11:50 PM,21.6,14.0,73,30.38,10.0,North,3.5,-,N/A,,Clear,360,2012-12-05 05:50:00